Location: Griffin Ranch
(33.6186°N, 110.6622°W)
Time: 14:58:31
(UTC-07:00)

Cosmos 1812 - Visible Passes

Search period start: 04 August 2015 00:00
Search period end: 14 August 2015 00:00
Orbit: 526 x 531 km, 82.5° (Epoch: 03 August)

Date Brightness Start Highest point End Pass type
(mag) Time Alt. Az. Time Alt. Az. Time Alt. Az.
04 Aug 3.9 20:48:39 10° NNE 20:51:53 27° ENE 20:51:53 27° ENE visible
04 Aug 5.5 22:25:30 10° NW 22:27:11 14° WNW 22:27:11 14° WNW visible
05 Aug 3.9 20:37:46 10° NNE 20:40:59 25° ENE 20:41:17 25° E visible
05 Aug 5.3 22:14:18 10° NW 22:16:34 16° W 22:16:34 16° W visible
06 Aug 4.0 20:26:53 10° NNE 20:29:59 23° ENE 20:30:40 22° E visible
06 Aug 5.2 22:03:09 10° NW 22:05:51 18° W 22:05:58 18° W visible
07 Aug 4.2 20:16:02 10° NNE 20:18:58 21° ENE 20:20:06 19° E visible
07 Aug 5.0 21:52:00 10° NW 21:54:53 19° W 21:55:24 19° W visible
08 Aug 4.3 20:05:10 10° NNE 20:07:57 19° ENE 20:09:34 15° ESE visible
08 Aug 4.9 21:40:53 10° NW 21:43:55 21° W 21:44:52 19° WSW visible
09 Aug 4.4 19:54:20 10° NNE 19:56:56 17° ENE 19:59:04 12° ESE visible
09 Aug 4.9 21:29:46 10° NW 21:32:56 23° W 21:34:22 19° WSW visible
10 Aug 4.5 19:43:31 10° NE 19:45:54 16° ENE 19:48:25 10° ESE visible
10 Aug 4.8 21:18:40 10° NW 21:21:57 25° W 21:23:54 17° SW visible
11 Aug 4.6 19:32:43 10° NE 19:34:51 15° ENE 19:37:10 10° ESE visible
11 Aug 4.6 21:07:34 10° NNW 21:10:57 28° W 21:13:30 14° SW visible
12 Aug 4.5 20:56:28 10° NNW 20:59:57 30° W 21:03:07 11° SSW visible
13 Aug 4.4 20:45:23 10° NNW 20:48:57 33° W 20:52:28 10° SSW visible
